(133433) = 2003 SP202

Discovered at Anderson Mesa on 2003-09-22 by LONEOS.

Orbit

Orbit type: Main Belt

Note: WebGL enabled browser required.

epoch2023-09-13.0
epoch JD2460200.5
perihelion date2019-02-13.20729
perihelion JD2458527.70729
argument of perihelion (°)40.68002
ascending node (°)0.62391
inclination (°)2.67683
eccentricity0.0920479
perihelion distance (AU)2.6434398
Tisserand w.r.t. Jupiter3.3
ΔV w.r.t. Earth (km/sec)10.2
semimajor axis (AU)2.9114309
mean anomaly (°)331.88394
mean daily motion (°/day)0.19840110
aphelion distance (AU)3.179
period (years)4.97
P-vector [x]0.75122657
P-vector [y]0.59282525
P-vector [z]0.29020143
Q-vector [x]-0.66004423
Q-vector [y]0.67438241
Q-vector [z]0.33098335
absolute magnitude16.14
phase slope0.15
uncertainty0
referenceMPEC 2024-A34
observations used526
oppositions15
arc length (days)11041
first opposition used1993
last opposition used2023
residual rms (arc-secs)0.78
perturbers coarse indicatorM-v
perturbers precise indicator003Ek
first observation date used1993-09-14.0
last observation date used2023-12-07.0
computer nameMPCLINUX
JD of orbit computation2456966.844208
perihelion JD uncertainty (days)1.6365E-04
argument of perihelion uncertainty (°)7.5598E-05
ascending node uncertainty (°)6.7312E-05
inclination uncertainty (°)6.5606E-06
eccentricity uncertainty 4.8749E-08
perihelion distance uncertainty (AU)1.3908E-07
Minimum Orbit Intersection Distances (in AU)
for orbit epoch: 2460200.5, reference: E2024-A34
Mercury2.32028
Venus1.92215
Earth1.65124
Mars1.14696
Jupiter2.17837
Saturn6.27789
Uranus15.3659
Neptune27.1834

Observations

547 total observations over interval: 1993 09 14.36152 – 2023 12 07.270022
These data are available for download (format description).

Date (UT) J2000 RA J2000 Dec Magn Location Ref
1993 09 14.36152 23 35 37.01 -03 19 56.0 20.1 V 691 – Steward Observatory, Kitt Peak-Spacewatch MPS 91001
1993 09 14.39620 23 35 35.32 -03 20 04.1   691 – Steward Observatory, Kitt Peak-Spacewatch MPS 91001
1993 09 14.43052 23 35 33.50 -03 20 12.4   691 – Steward Observatory, Kitt Peak-Spacewatch MPS 91001
1998 08 26.42903 00 06 52.86 -00 00 40.4 20.4 V 691 – Steward Observatory, Kitt Peak-Spacewatch MPS 90533
1998 08 26.45023 00 06 52.15 -00 00 43.9 20.7 V 691 – Steward Observatory, Kitt Peak-Spacewatch MPS 90533
1998 08 26.47357 00 06 51.36 -00 00 47.3 20.8 V 691 – Steward Observatory, Kitt Peak-Spacewatch MPS 90533
1998 09 23.37720 23 46 39.45 -01 43 19.4 20.0 V 691 – Steward Observatory, Kitt Peak-Spacewatch MPS 90533
1998 09 23.40275 23 46 38.18 -01 43 25.5 19.9 V 691 – Steward Observatory, Kitt Peak-Spacewatch MPS 90533
1998 09 23.43116 23 46 36.75 -01 43 32.5 19.8 V 691 – Steward Observatory, Kitt Peak-Spacewatch MPS 90533
1998 10 14.89656 23 31 28.84 -02 57 40.4 21.1 V 910 – Caussols-ODAS MPS 90533
1998 10 14.92433 23 31 27.90 -02 57 44.8 21.3 V 910 – Caussols-ODAS MPS 90533
1998 10 14.94809 23 31 27.08 -02 57 47.9 21.2 V 910 – Caussols-ODAS MPS 90533
2003 09 22.23401 00 04 04.51 +00 22 20.6 19.2 R 699 – Lowell Observatory-LONEOS MPS 86338
2003 09 22.25397 00 04 03.64 +00 22 16.5   699 – Lowell Observatory-LONEOS MPS 86338
2003 09 22.27395 00 04 02.55 +00 22 12.0   699 – Lowell Observatory-LONEOS MPS 86338
2003 09 22.29395 00 04 01.51 +00 22 06.2   699 – Lowell Observatory-LONEOS MPS 86338
2003 09 26.22900 00 00 50.07 +00 05 46.1 19.3   704 – Lincoln Laboratory ETS, New Mexico MPS 86338
2003 09 26.24151 00 00 49.40 +00 05 42.6 19.4   704 – Lincoln Laboratory ETS, New Mexico MPS 86338
2003 09 26.25416 00 00 48.73 +00 05 39.2 19.8   704 – Lincoln Laboratory ETS, New Mexico MPS 86338
2003 09 26.26682 00 00 48.15 +00 05 36.4 19.8   704 – Lincoln Laboratory ETS, New Mexico MPS 86338
2003 09 26.27932 00 00 47.45 +00 05 32.7 19.5   704 – Lincoln Laboratory ETS, New Mexico MPS 86338
2003 09 29.21421 23 58 25.64 -00 06 33.4 20.0 V 691 – Steward Observatory, Kitt Peak-Spacewatch MPS 87081
2003 09 29.24042 23 58 24.35 -00 06 39.2 20.3   704 – Lincoln Laboratory ETS, New Mexico MPS 87081
2003 09 29.24798 23 58 23.97 -00 06 41.6 20.0 V 691 – Steward Observatory, Kitt Peak-Spacewatch MPS 87081
2003 09 29.25330 23 58 23.73 -00 06 43.5 20.1   704 – Lincoln Laboratory ETS, New Mexico MPS 87081
2003 09 29.27868 23 58 22.45 -00 06 48.6 20.4   704 – Lincoln Laboratory ETS, New Mexico MPS 87081
2003 09 29.28882 23 58 21.93 -00 06 51.7 19.9 V 691 – Steward Observatory, Kitt Peak-Spacewatch MPS 87081
2003 09 29.292630 23 58 21.710 -00 06 52.88 19.91 V 645 – Apache Point-Sloan Digital Sky Survey MPS 137018
2003 09 29.296102 23 58 21.543 -00 06 53.73 20.65   645 – Apache Point-Sloan Digital Sky Survey MPS 137018
2003 10 19.208910 23 44 33.894 -01 15 20.36 20.37 V 645 – Apache Point-Sloan Digital Sky Survey MPS 137018
2003 10 19.212382 23 44 33.778 -01 15 20.84 21.37   645 – Apache Point-Sloan Digital Sky Survey MPS 137018
2003 10 24.09744 23 42 12.23 -01 26 00.1 21.0 V 691 – Steward Observatory, Kitt Peak-Spacewatch MPS 88241
2003 10 24.12563 23 42 11.47 -01 26 03.2 20.7 V 691 – Steward Observatory, Kitt Peak-Spacewatch MPS 88241
2003 10 24.15245 23 42 10.74 -01 26 06.4 20.7 V 691 – Steward Observatory, Kitt Peak-Spacewatch MPS 88241
2004 12 11.48507 07 53 37.57 +24 43 58.9 20.5 V 691 – Steward Observatory, Kitt Peak-Spacewatch MPS 125455
2004 12 11.51063 07 53 36.74 +24 44 02.2 20.5 V 691 – Steward Observatory, Kitt Peak-Spacewatch MPS 125455
2004 12 11.53654 07 53 35.87 +24 44 05.3 20.6 V 691 – Steward Observatory, Kitt Peak-Spacewatch MPS 125455
2005 01 07.28937 07 32 14.61 +25 43 03.3 19.6   704 – Lincoln Laboratory ETS, New Mexico MPS 125455
2005 01 07.30391 07 32 13.67 +25 43 04.4 20.1   704 – Lincoln Laboratory ETS, New Mexico MPS 125455
2005 01 07.31741 07 32 12.98 +25 43 07.2 19.9   704 – Lincoln Laboratory ETS, New Mexico MPS 125455
2005 01 07.33037 07 32 12.19 +25 43 08.8 19.9   704 – Lincoln Laboratory ETS, New Mexico MPS 125455
2005 01 16.30245 07 23 27.51 +25 57 21.3 19.9   704 – Lincoln Laboratory ETS, New Mexico MPS 124727
2005 01 16.31642 07 23 26.62 +25 57 22.2 20.4   704 – Lincoln Laboratory ETS, New Mexico MPS 124727
2005 01 16.33011 07 23 25.82 +25 57 24.1 20.2   704 – Lincoln Laboratory ETS, New Mexico MPS 124727
2005 01 18.25726 07 21 36.27 +25 59 42.7 19.9 V 691 – Steward Observatory, Kitt Peak-Spacewatch MPS 124727
2005 01 18.28380 07 21 34.73 +25 59 44.4 20.1 V 691 – Steward Observatory, Kitt Peak-Spacewatch MPS 124727
2005 01 18.31565 07 21 32.86 +25 59 46.9 20.0 V 691 – Steward Observatory, Kitt Peak-Spacewatch MPS 124727
2006 02 25.45317 13 14 38.08 -08 20 52.6 21.3 V 691 – Steward Observatory, Kitt Peak-Spacewatch MPS 165078
2006 02 25.47332 13 14 37.61 -08 20 51.3 21.3 V 691 – Steward Observatory, Kitt Peak-Spacewatch MPS 165078
2006 02 25.49525 13 14 37.16 -08 20 50.2 21.1 V 691 – Steward Observatory, Kitt Peak-Spacewatch MPS 165078
2006 03 25.36633 12 58 25.60 -07 04 49.6 20.5 V G96 – Mt. Lemmon Survey MPS 167051
2006 03 25.37982 12 58 24.96 -07 04 46.5 20.5 V G96 – Mt. Lemmon Survey MPS 167051
2006 03 25.39336 12 58 24.34 -07 04 43.1 20.5 V G96 – Mt. Lemmon Survey MPS 167051
2006 03 25.40747 12 58 23.70 -07 04 40.7 20.5 V G96 – Mt. Lemmon Survey MPS 167051
2006 05 06.16928 12 29 14.60 -04 26 15.6 21.3 V G96 – Mt. Lemmon Survey MPS 171383
2006 05 06.17458 12 29 14.42 -04 26 14.9 21.4 V G96 – Mt. Lemmon Survey MPS 171383
2006 05 06.17983 12 29 14.28 -04 26 14.0 20.5 V G96 – Mt. Lemmon Survey MPS 171383
2006 05 06.18492 12 29 14.20 -04 26 14.2 21.4 V G96 – Mt. Lemmon Survey MPS 171383
2008 08 22.35180 00 34 04.21 +03 16 46.5   691 – Steward Observatory, Kitt Peak-Spacewatch MPS 255086
2008 08 22.36938 00 34 03.87 +03 16 44.7   691 – Steward Observatory, Kitt Peak-Spacewatch MPS 255086
2008 08 22.38696 00 34 03.48 +03 16 43.3   691 – Steward Observatory, Kitt Peak-Spacewatch MPS 255086
2008 09 02.28343 00 29 13.56 +02 56 04.5 20.1 V 691 – Steward Observatory, Kitt Peak-Spacewatch MPS 255676
2008 09 02.30099 00 29 12.94 +02 56 01.6 20.2 V 691 – Steward Observatory, Kitt Peak-Spacewatch MPS 255676
2008 09 02.31854 00 29 12.33 +02 55 58.9 20.0 V 691 – Steward Observatory, Kitt Peak-Spacewatch MPS 255676
2008 09 06.30669 00 26 49.96 +02 44 48.3   691 – Steward Observatory, Kitt Peak-Spacewatch MPS 256408
2008 09 06.32427 00 26 49.27 +02 44 45.2   691 – Steward Observatory, Kitt Peak-Spacewatch MPS 256408
2008 09 06.34187 00 26 48.58 +02 44 42.0   691 – Steward Observatory, Kitt Peak-Spacewatch MPS 256408
2008 09 20.30081 00 16 41.16 +01 54 27.0 20.1 V G96 – Mt. Lemmon Survey MPS 257572
2008 09 20.30572 00 16 40.90 +01 54 25.7 19.8 V G96 – Mt. Lemmon Survey MPS 257572
2008 09 20.31066 00 16 40.65 +01 54 24.7 19.8 V G96 – Mt. Lemmon Survey MPS 257572
2008 09 20.31556 00 16 40.40 +01 54 23.5 19.8 V G96 – Mt. Lemmon Survey MPS 257572
2008 09 24.23323 00 13 31.51 +01 38 19.7 19.4   704 – Lincoln Laboratory ETS, New Mexico MPS 257572
2008 09 24.24532 00 13 30.85 +01 38 17.5 20.0   704 – Lincoln Laboratory ETS, New Mexico MPS 257572
2008 09 24.25741 00 13 30.29 +01 38 13.8 20.2   704 – Lincoln Laboratory ETS, New Mexico MPS 257572
2008 09 24.26950 00 13 29.61 +01 38 10.4 20.1   704 – Lincoln Laboratory ETS, New Mexico MPS 257572
2008 09 24.28158 00 13 28.99 +01 38 07.4 20.2   704 – Lincoln Laboratory ETS, New Mexico MPS 257572
2008 09 29.24237 00 09 27.23 +01 17 29.4 20.3   704 – Lincoln Laboratory ETS, New Mexico MPS 258944
2008 09 29.25474 00 09 26.67 +01 17 25.8 20.5   704 – Lincoln Laboratory ETS, New Mexico MPS 258944
2008 09 29.26712 00 09 26.10 +01 17 22.7 19.5   704 – Lincoln Laboratory ETS, New Mexico MPS 258944
2008 09 29.27281 00 09 25.77 +01 17 20.9 19.4 V G96 – Mt. Lemmon Survey MPS 258944
2008 09 29.27883 00 09 25.48 +01 17 19.3 19.4 V G96 – Mt. Lemmon Survey MPS 258944
2008 09 29.27951 00 09 25.46 +01 17 18.7 19.4   704 – Lincoln Laboratory ETS, New Mexico MPS 258944
2008 09 29.28498 00 09 25.16 +01 17 17.4 19.4 V G96 – Mt. Lemmon Survey MPS 258944
2008 09 29.29151 00 09 24.84 +01 17 15.8 19.4 V G96 – Mt. Lemmon Survey MPS 258944
